Location: Wapato
(46.4478°N, 120.4212°W)
Time: 10:07:53
(UTC+00:00)

Injun/Solrad 3 - Pass Details

Date: 11 May 2026
Orbit: 867 x 989 km, 66.8° (Epoch: 10 June)

Event Time Altitude Azimuth Distance (km) Brightness Sun altitude
Rises 23:26:48 0° 180° (S) 3,495 11.1 38.8°
Reaches altitude 10° 23:29:30 10° 170° (S) 2,577 10.4 38.3°
Maximum altitude 23:34:43 32° 110° (ESE) 1,535 9.0 37.5°
Drops below altitude 10° 23:40:05 10° 49° (NE) 2,667 10.0 36.6°
Sets 23:42:55 0° 40° (NE) 3,636 10.6 36.1°
